,,,PA_Meas_PMT16A,,PR_Meas_QMR101_102,,RH_Meas_QMH101,,SR_Meas_QMS101,,TA_Meas_QMH101,,GenWind,,GenWind,
date,time,status,PA,status,PR,status,RH,status,SR,status,TA,status,DirAvg,status,SpdAvg,
2010-01-24, 00:00:04,VALID,1006.37,VALID,0,VALID,81.8274,VALID,0,VALID,25.8629,VALID,356,VALID,0.937891,
2010-01-24, 00:01:04,VALID,1006.36,VALID,0,VALID,81.7511,VALID,0,VALID,25.8648,VALID,348,VALID,0.900781,
2010-01-24, 00:02:04,VALID,1006.31,VALID,0,VALID,81.6595,VALID,0,VALID,25.8648,VALID,358,VALID,0.992969,
2010-01-24, 00:03:04,VALID,1006.33,VALID,0,VALID,81.8426,VALID,0,VALID,25.8648,VALID,354,VALID,0.808984,
2010-01-24, 00:04:04,VALID,1006.31,VALID,0,VALID,81.4002,VALID,0,VALID,25.9038,VALID,351,VALID,1.37852,
2010-01-24, 00:05:04,VALID,1006.28,VALID,0,VALID,81.5298,VALID,0,VALID,25.9018,VALID,19,VALID,0.651953,
2010-01-24, 00:06:04,VALID,1006.24,VALID,0,VALID,81.2857,VALID,0,VALID,25.9018,VALID,356,VALID,1.02852,
2010-01-24, 00:07:04,VALID,1006.22,VALID,0,VALID,81.4002,VALID,0,VALID,25.9408,VALID,14,VALID,0.605469,
2010-01-24, 00:08:04,VALID,1006.24,VALID,0,VALID,81.5604,VALID,0.100563,VALID,25.9018,VALID,10,VALID,0.970312,
2010-01-24, 00:09:04,VALID,1006.2,VALID,0,VALID,81.5375,VALID,0,VALID,25.8629,VALID,29,VALID,1.88828,
2010-01-24, 00:10:04,VALID,1006.17,VALID,0,VALID,81.7053,VALID,0,VALID,25.9038,VALID,3,VALID,0.743359,
2010-01-24, 00:11:04,VALID,1006.12,VALID,0,VALID,81.629,VALID,0,VALID,25.8434,VALID,27,VALID,1.38828,
2010-01-24, 00:12:04,VALID,1006.1,VALID,0,VALID,81.6138,VALID,0,VALID,25.8434,VALID,358,VALID,1.06562,
2010-01-24, 00:13:04,VALID,1006.09,VALID,0,VALID,81.7358,VALID,0,VALID,25.8239,VALID,6,VALID,0.96875,
2010-01-24, 00:14:04,VALID,1006.07,VALID,0,VALID,81.7663,VALID,0.100563,VALID,25.8044,VALID,29,VALID,1.64414,
2010-01-24, 00:15:04,VALID,1006.03,VALID,0,VALID,81.9571,VALID,0,VALID,25.8044,VALID,360,VALID,1.03359,
2010-01-24, 00:16:04,VALID,1006.02,VALID,0,VALID,81.896,VALID,0,VALID,25.8044,VALID,18,VALID,1.15703,
2010-01-24, 00:17:04,VALID,1005.99,VALID,0,VALID,81.9418,VALID,0,VALID,25.8044,VALID,350,VALID,1.05938,
2010-01-24, 00:18:04,VALID,1005.96,VALID,0,VALID,81.9799,VALID,0.100563,VALID,25.785,VALID,6,VALID,1.47148,
2010-01-24, 00:19:04,VALID,1005.95,VALID,0,VALID,81.7358,VALID,0,VALID,25.785,VALID,347,VALID,1.48398,
2010-01-24, 00:20:04,VALID,1005.93,VALID,0,VALID,81.69,VALID,0,VALID,25.8434,VALID,37,VALID,1.74609,
2010-01-24, 00:21:04,VALID,1005.93,VALID,0,VALID,81.6214,VALID,0,VALID,25.8434,VALID,27,VALID,1.36211,
2010-01-24, 00:22:04,VALID,1005.92,VALID,0,VALID,81.5909,VALID,0.100563,VALID,25.8219,VALID,357,VALID,0.978906,
2010-01-24, 00:23:04,VALID,1005.92,VALID,0,VALID,81.4688,VALID,0.100563,VALID,25.8434,VALID,352,VALID,1.58203,
2010-01-24, 00:24:04,VALID,1005.92,VALID,0,VALID,81.3467,VALID,0,VALID,25.8629,VALID,351,VALID,0.863281,
2010-01-24, 00:25:04,VALID,1005.89,VALID,0,VALID,81.3849,VALID,0.100563,VALID,25.8629,VALID,353,VALID,1.28906,
2010-01-24, 00:26:04,VALID,1005.86,VALID,0,VALID,81.4917,VALID,0,VALID,25.8434,VALID,358,VALID,0.644531,
2010-01-24, 00:27:04,VALID,1005.81,VALID,0,VALID,81.6672,VALID,0.100563,VALID,25.8843,VALID,348,VALID,0.448828,
2010-01-24, 00:28:04,VALID,1005.8,VALID,0,VALID,81.8503,VALID,0,VALID,25.8239,VALID,342,VALID,0.636328,
2010-01-24, 00:29:04,VALID,1005.8,VALID,0,VALID,82.0028,VALID,0,VALID,25.7655,VALID,1,VALID,0.485938,
2010-01-24, 00:30:04,VALID,1005.8,VALID,0,VALID,82.041,VALID,0,VALID,25.746,VALID,344,VALID,0.564453,
2010-01-24, 00:31:04,VALID,1005.77,VALID,0,VALID,82.1783,VALID,0,VALID,25.6856,VALID,352,VALID,0.725391,
2010-01-24, 00:32:04,VALID,1005.76,VALID,0,VALID,82.1707,VALID,0,VALID,25.709,VALID,342,VALID,1.30156,
2010-01-24, 00:33:04,VALID,1005.73,VALID,0,VALID,82.2546,VALID,0,VALID,25.7071,VALID,2,VALID,1.25156,
2010-01-24, 00:34:04,VALID,1005.72,VALID,0,VALID,82.2927,VALID,0.100563,VALID,25.6876,VALID,360,VALID,1.21719,
2010-01-24, 00:35:04,VALID,1005.7,VALID,0,VALID,82.4835,VALID,0,VALID,25.6895,VALID,356,VALID,0.671094,
2010-01-24, 00:36:04,VALID,1005.67,VALID,0,VALID,82.6513,VALID,0,VALID,25.6292,VALID,18,VALID,0.789063,
2010-01-24, 00:37:04,VALID,1005.61,VALID,0,VALID,82.6971,VALID,0,VALID,25.6097,VALID,354,VALID,1.09336,
2010-01-24, 00:38:04,VALID,1005.6,VALID,0,VALID,82.781,VALID,0,VALID,25.5902,VALID,330,VALID,0.708594,
2010-01-24, 00:39:04,VALID,1005.55,VALID,0,VALID,83.048,VALID,0,VALID,25.5513,VALID,353,VALID,0.619531,
2010-01-24, 00:40:04,VALID,1005.55,VALID,0,VALID,83.254,VALID,0,VALID,25.4928,VALID,354,VALID,0.963672,
2010-01-24, 00:41:04,VALID,1005.54,VALID,0,VALID,83.4828,VALID,0,VALID,25.4539,VALID,336,VALID,0.644531,
2010-01-24, 00:42:04,VALID,1005.53,VALID,0,VALID,83.6049,VALID,0,VALID,25.4344,VALID,359,VALID,0.562891,
2010-01-24, 00:43:04,VALID,1005.54,VALID,0,VALID,83.7498,VALID,0,VALID,25.4149,VALID,345,VALID,0.595312,
2010-01-24, 00:44:04,VALID,1005.58,VALID,0,VALID,83.727,VALID,0,VALID,25.3974,VALID,345,VALID,0.821094,
2010-01-24, 00:45:04,VALID,1005.59,VALID,0,VALID,83.8719,VALID,0,VALID,25.3779,VALID,1,VALID,0.479297,
2010-01-24, 00:46:04,VALID,1005.55,VALID,0,VALID,83.7498,VALID,0,VALID,25.3584,VALID,345,VALID,0.954297,
2010-01-24, 00:47:04,VALID,1005.54,VALID,0,VALID,83.5896,VALID,0,VALID,25.3974,VALID,338,VALID,0.678125,
2010-01-24, 00:48:04,VALID,1005.53,VALID,0,VALID,83.4142,VALID,0,VALID,25.4363,VALID,341,VALID,0.715625,
2010-01-24, 00:49:04,VALID,1005.51,VALID,0,VALID,83.4294,VALID,0,VALID,25.4558,VALID,21,VALID,0.717969,
2010-01-24, 00:50:04,VALID,1005.48,VALID,0,VALID,83.4371,VALID,0,VALID,25.4363,VALID,16,VALID,1.31445,
2010-01-24, 00:51:04,VALID,1005.44,VALID,0,VALID,83.4981,VALID,0,VALID,25.4344,VALID,352,VALID,0.718359,
2010-01-24, 00:52:04,VALID,1005.43,VALID,0,VALID,83.6736,VALID,0,VALID,25.4169,VALID,352,VALID,0.489062,
2010-01-24, 00:53:04,VALID,1005.4,VALID,0,VALID,83.9024,VALID,0,VALID,25.3584,VALID,352,VALID,0.539453,
2010-01-24, 00:54:04,VALID,1005.38,VALID,0,VALID,84.0779,VALID,0,VALID,25.2981,VALID,353,VALID,0.766016,
2010-01-24, 00:55:04,VALID,1005.39,VALID,0,VALID,84.2762,VALID,0,VALID,25.2806,VALID,3,VALID,1.03125,
2010-01-24, 00:56:04,VALID,1005.35,VALID,0,VALID,84.4975,VALID,0,VALID,25.2611,VALID,5,VALID,0.684766,
2010-01-24, 00:57:04,VALID,1005.34,VALID,0,VALID,84.6653,VALID,0,VALID,25.2416,VALID,31,VALID,0.614062,
2010-01-24, 00:58:04,VALID,1005.3,VALID,0,VALID,84.8713,VALID,0,VALID,25.1832,VALID,31,VALID,0.405469,
2010-01-24, 00:59:04,VALID,1005.31,VALID,0,VALID,85.001,VALID,0,VALID,25.1637,VALID,17,VALID,0.364453,
2010-01-24, 01:00:04,VALID,1005.31,VALID,0,VALID,85.0849,VALID,0,VALID,25.1248,VALID,17,VALID,0.443359,
2010-01-24, 01:01:04,VALID,1005.26,VALID,0,VALID,85.2756,VALID,0,VALID,25.0858,VALID,17,VALID,0.350391,
2010-01-24, 01:02:04,VALID,1005.23,VALID,0,VALID,85.4892,VALID,0,VALID,25.0469,VALID,349,VALID,0.503125,
2010-01-24, 01:03:04,VALID,1005.24,VALID,0,VALID,85.6342,VALID,0,VALID,25.0079,VALID,19,VALID,0.589844,
2010-01-24, 01:04:04,VALID,1005.22,VALID,0,VALID,85.8402,VALID,0,VALID,24.969,VALID,19,VALID,0.509766,
2010-01-24, 01:05:04,VALID,1005.19,VALID,0,VALID,86.0614,VALID,0,VALID,24.93,VALID,16,VALID,0.434375,
2010-01-24, 01:06:04,VALID,1005.18,VALID,0,VALID,86.1682,VALID,0,VALID,24.93,VALID,24,VALID,0.590625,
2010-01-24, 01:07:04,VALID,1005.16,VALID,0,VALID,86.1606,VALID,0,VALID,24.93,VALID,32,VALID,0.420312,
2010-01-24, 01:08:04,VALID,1005.13,VALID,0,VALID,86.2903,VALID,0,VALID,24.8892,VALID,32,VALID,0.144531,
2010-01-24, 01:09:04,VALID,1005.13,VALID,0,VALID,86.4352,VALID,0,VALID,24.8503,VALID,31,VALID,0.367969,
2010-01-24, 01:10:04,VALID,1005.13,VALID,0,VALID,86.5878,VALID,0,VALID,24.8308,VALID,21,VALID,0.530859,
2010-01-24, 01:11:04,VALID,1005.12,VALID,0,VALID,86.6031,VALID,0,VALID,24.8522,VALID,15,VALID,0.794141,
2010-01-24, 01:12:04,VALID,1005.08,VALID,0,VALID,86.5039,VALID,0,VALID,24.8697,VALID,22,VALID,0.471484,
2010-01-24, 01:13:04,VALID,1005.07,VALID,0,VALID,86.3742,VALID,0,VALID,24.8697,VALID,21,VALID,0.342187,
2010-01-24, 01:14:04,VALID,1005.03,VALID,0,VALID,86.4428,VALID,0,VALID,24.8503,VALID,21,VALID,0.502344,
2010-01-24, 01:15:04,VALID,1005.01,VALID,0,VALID,86.5725,VALID,0,VALID,24.8716,VALID,20,VALID,0.929688,
2010-01-24, 01:16:04,VALID,1004.94,VALID,0,VALID,86.6793,VALID,0,VALID,24.8522,VALID,22,VALID,0.525781,
2010-01-24, 01:17:04,VALID,1004.92,VALID,0,VALID,86.7404,VALID,0,VALID,24.8308,VALID,16,VALID,0.782812,
2010-01-24, 01:18:04,VALID,1004.91,VALID,0,VALID,86.748,VALID,0,VALID,24.8132,VALID,28,VALID,0.659375,
2010-01-24, 01:19:04,VALID,1004.9,VALID,0,VALID,86.8014,VALID,0,VALID,24.8132,VALID,22,VALID,0.876953,
2010-01-24, 01:20:04,VALID,1004.85,VALID,0,VALID,86.7709,VALID,0,VALID,24.8132,VALID,22,VALID,0.690625,
2010-01-24, 01:21:04,VALID,1004.86,VALID,0,VALID,86.7556,VALID,0,VALID,24.8327,VALID,29,VALID,0.516797,
2010-01-24, 01:22:04,VALID,1004.87,VALID,0,VALID,86.6946,VALID,0,VALID,24.8327,VALID,32,VALID,0.502344,
2010-01-24, 01:23:04,VALID,1004.86,VALID,0,VALID,86.7404,VALID,0,VALID,24.8308,VALID,27,VALID,0.449219,
2010-01-24, 01:24:04,VALID,1004.85,VALID,0,VALID,86.7022,VALID,0,VALID,24.8308,VALID,22,VALID,0.783984,
2010-01-24, 01:25:04,VALID,1004.85,VALID,0,VALID,86.7022,VALID,0,VALID,24.8327,VALID,50,VALID,0.436719,
2010-01-24, 01:26:04,VALID,1004.86,VALID,0,VALID,86.7099,VALID,0,VALID,24.8522,VALID,1,VALID,0.871094,
2010-01-24, 01:27:04,VALID,1004.85,VALID,0,VALID,86.6183,VALID,0,VALID,24.8716,VALID,27,VALID,0.780078,
2010-01-24, 01:28:04,VALID,1004.86,VALID,0,VALID,86.5878,VALID,0,VALID,24.8716,VALID,35,VALID,0.638672,
2010-01-24, 01:29:04,VALID,1004.81,VALID,0,VALID,86.5878,VALID,0,VALID,24.8308,VALID,63,VALID,0.493359,
2010-01-24, 01:30:04,VALID,1004.8,VALID,0,VALID,86.7251,VALID,0,VALID,24.8113,VALID,15,VALID,0.196094,
2010-01-24, 01:31:04,VALID,1004.76,VALID,0,VALID,86.8014,VALID,0,VALID,24.7724,VALID,33,VALID,0.715625,
2010-01-24, 01:32:04,VALID,1004.74,VALID,0,VALID,86.9311,VALID,0,VALID,24.7937,VALID,38,VALID,0.496875,
2010-01-24, 01:33:04,VALID,1004.76,VALID,0,VALID,87.015,VALID,0,VALID,24.7548,VALID,34,VALID,0.598828,
2010-01-24, 01:34:04,VALID,1004.75,VALID,0,VALID,87.1218,VALID,0,VALID,24.7335,VALID,26,VALID,0.435156,
2010-01-24, 01:35:04,VALID,1004.78,VALID,0,VALID,87.1371,VALID,0,VALID,24.7353,VALID,44,VALID,0,
2010-01-24, 01:36:04,VALID,1004.75,VALID,0,VALID,87.2439,VALID,0,VALID,24.7159,VALID,36,VALID,0.266016,
2010-01-24, 01:37:04,VALID,1004.8,VALID,0,VALID,87.3202,VALID,0,VALID,24.7159,VALID,34,VALID,0.426562,
2010-01-24, 01:38:04,VALID,1004.78,VALID,0,VALID,87.3736,VALID,0,VALID,24.7159,VALID,34,VALID,0.315625,
2010-01-24, 01:39:04,VALID,1004.79,VALID,0,VALID,87.343,VALID,0,VALID,24.6964,VALID,34,VALID,0.0148437,
2010-01-24, 01:40:04,VALID,1004.8,VALID,0,VALID,87.343,VALID,0,VALID,24.6556,VALID,34,VALID,0.00195313,
2010-01-24, 01:41:04,VALID,1004.82,VALID,0,VALID,87.427,VALID,0,VALID,24.6574,VALID,34,VALID,0.215625,
2010-01-24, 01:42:04,VALID,1004.79,VALID,0,VALID,87.6024,VALID,0,VALID,24.6361,VALID,34,VALID,0.168359,
2010-01-24, 01:43:04,VALID,1004.77,VALID,0,VALID,87.7932,VALID,0,VALID,24.6166,VALID,34,VALID,0.000390625,
2010-01-24, 01:44:04,VALID,1004.72,VALID,0,VALID,87.8923,VALID,0,VALID,24.5777,VALID,34,VALID,0.152734,
2010-01-24, 01:45:04,VALID,1004.71,VALID,0,VALID,87.961,VALID,0,VALID,24.5796,VALID,34,VALID,0.166406,
2010-01-24, 01:46:04,VALID,1004.72,VALID,0,VALID,88.0068,VALID,0,VALID,24.5582,VALID,34,VALID,0,
2010-01-24, 01:47:04,VALID,1004.71,VALID,0,VALID,88.0831,VALID,0,VALID,24.5212,VALID,34,VALID,0,
2010-01-24, 01:48:04,VALID,1004.68,VALID,0,VALID,88.2204,VALID,0,VALID,24.4804,VALID,34,VALID,0.00078125,
2010-01-24, 01:49:04,VALID,1004.71,VALID,0,VALID,88.4264,VALID,0,VALID,24.4804,VALID,34,VALID,0.0121094,
2010-01-24, 01:50:04,VALID,1004.64,VALID,0,VALID,88.5408,VALID,0,VALID,24.4822,VALID,34,VALID,0.0015625,
2010-01-24, 01:51:04,VALID,1004.71,VALID,0,VALID,88.64,VALID,0,VALID,24.4433,VALID,360,VALID,0.732422,
2010-01-24, 01:52:04,VALID,1004.71,VALID,0,VALID,88.6705,VALID,0,VALID,24.4238,VALID,226,VALID,0.503906,
2010-01-24, 01:53:04,VALID,1004.69,VALID,0,VALID,88.7239,VALID,0,VALID,24.3636,VALID,226,VALID,0.182422,
2010-01-24, 01:54:04,VALID,1004.71,VALID,0,VALID,88.7773,VALID,0,VALID,24.3246,VALID,226,VALID,0,
2010-01-24, 01:55:04,VALID,1004.66,VALID,0,VALID,89.0367,VALID,0,VALID,24.3052,VALID,226,VALID,0.0800781,
2010-01-24, 01:56:04,VALID,1004.65,VALID,0,VALID,89.174,VALID,0,VALID,24.307,VALID,226,VALID,0.00195313,
2010-01-24, 01:57:04,VALID,1004.65,VALID,0,VALID,89.3952,VALID,0,VALID,24.2681,VALID,226,VALID,0.0234375,
2010-01-24, 01:58:04,VALID,1004.63,VALID,0,VALID,89.5554,VALID,0,VALID,24.2468,VALID,226,VALID,0.0917969,
2010-01-24, 01:59:04,VALID,1004.58,VALID,0,VALID,89.7385,VALID,0,VALID,24.2273,VALID,226,VALID,0.241797,
2010-01-24, 02:00:04,VALID,1004.57,VALID,0,VALID,89.8377,VALID,0,VALID,24.2468,VALID,226,VALID,0.338281,
2010-01-24, 02:01:04,VALID,1004.56,VALID,0,VALID,89.8148,VALID,0,VALID,24.2468,VALID,226,VALID,0,
2010-01-24, 02:02:04,VALID,1004.51,VALID,0,VALID,89.8148,VALID,0,VALID,24.2681,VALID,226,VALID,0,
2010-01-24, 02:03:04,VALID,1004.51,VALID,0,VALID,89.8682,VALID,0,VALID,24.2291,VALID,226,VALID,0,
2010-01-24, 02:04:04,VALID,1004.5,VALID,0,VALID,89.7538,VALID,0,VALID,24.1494,VALID,226,VALID,0.330078,
2010-01-24, 02:05:04,VALID,1004.47,VALID,0,VALID,89.7156,VALID,0,VALID,24.13,VALID,226,VALID,0.225,
2010-01-24, 02:06:04,VALID,1004.46,VALID,0,VALID,89.769,VALID,0,VALID,24.0929,VALID,226,VALID,0.164844,
2010-01-24, 02:07:04,VALID,1004.46,VALID,0,VALID,89.8606,VALID,0,VALID,24.0521,VALID,226,VALID,0.00273437,
2010-01-24, 02:08:04,VALID,1004.45,VALID,0,VALID,89.9292,VALID,0,VALID,24.0132,VALID,226,VALID,0,
2010-01-24, 02:09:04,VALID,1004.47,VALID,0,VALID,90.0132,VALID,0,VALID,23.9955,VALID,226,VALID,0,
2010-01-24, 02:10:04,VALID,1004.47,VALID,0,VALID,90.0818,VALID,0,VALID,23.9159,VALID,226,VALID,0.636328,
2010-01-24, 02:11:04,VALID,1004.42,VALID,0,VALID,90.2039,VALID,0,VALID,23.8575,VALID,226,VALID,0,
2010-01-24, 02:12:04,VALID,1004.41,VALID,0,VALID,90.3488,VALID,0,VALID,23.8593,VALID,226,VALID,0.165234,
2010-01-24, 02:13:04,VALID,1004.39,VALID,0,VALID,90.5167,VALID,0,VALID,23.8185,VALID,226,VALID,0.478516,
2010-01-24, 02:14:04,VALID,1004.34,VALID,0,VALID,90.6387,VALID,0,VALID,23.7796,VALID,226,VALID,0.304688,
2010-01-24, 02:15:04,VALID,1004.35,VALID,0,VALID,90.7837,VALID,0,VALID,23.7601,VALID,226,VALID,0.0824219,
2010-01-24, 02:16:04,VALID,1004.35,VALID,0,VALID,90.9515,VALID,0,VALID,23.7601,VALID,226,VALID,0,
2010-01-24, 02:17:04,VALID,1004.35,VALID,0,VALID,91.0583,VALID,0,VALID,23.7619,VALID,226,VALID,0,
2010-01-24, 02:18:04,VALID,1004.35,VALID,0,VALID,91.1346,VALID,0,VALID,23.7425,VALID,226,VALID,0,
2010-01-24, 02:19:04,VALID,1004.41,VALID,0,VALID,91.2109,VALID,0,VALID,23.7212,VALID,226,VALID,0,
2010-01-24, 02:20:04,VALID,1004.39,VALID,0,VALID,91.2948,VALID,0,VALID,23.7212,VALID,226,VALID,0,
2010-01-24, 02:21:04,VALID,1004.41,VALID,0,VALID,91.3024,VALID,0,VALID,23.7212,VALID,226,VALID,0,
2010-01-24, 02:22:04,VALID,1004.45,VALID,0,VALID,91.394,VALID,0,VALID,23.7017,VALID,226,VALID,0,
2010-01-24, 02:23:04,VALID,1004.45,VALID,0,VALID,91.4474,VALID,0.100563,VALID,23.7017,VALID,226,VALID,0,
2010-01-24, 02:24:04,VALID,1004.39,VALID,0,VALID,91.4626,VALID,0,VALID,23.6823,VALID,226,VALID,0,
2010-01-24, 02:25:04,VALID,1004.46,VALID,0,VALID,91.4398,VALID,0,VALID,23.6823,VALID,226,VALID,0,
2010-01-24, 02:26:04,VALID,1004.45,VALID,0,VALID,91.4245,VALID,0,VALID,23.6434,VALID,226,VALID,0,
2010-01-24, 02:27:04,VALID,1004.48,VALID,0,VALID,91.4398,VALID,0,VALID,23.6239,VALID,226,VALID,0,
2010-01-24, 02:28:04,VALID,1004.49,VALID,0,VALID,91.4932,VALID,0,VALID,23.6221,VALID,226,VALID,0,
2010-01-24, 02:29:04,VALID,1004.48,VALID,0,VALID,91.5618,VALID,0,VALID,23.6628,VALID,226,VALID,0,
2010-01-24, 02:30:04,VALID,1004.49,VALID,0,VALID,91.661,VALID,0,VALID,23.6823,VALID,226,VALID,0,
2010-01-24, 02:31:04,VALID,1004.5,VALID,0,VALID,91.7678,VALID,0,VALID,23.6823,VALID,226,VALID,0,
2010-01-24, 02:32:04,VALID,1004.48,VALID,0,VALID,91.8212,VALID,0,VALID,23.6823,VALID,226,VALID,0,
2010-01-24, 02:33:04,VALID,1004.48,VALID,0,VALID,91.9356,VALID,0,VALID,23.6841,VALID,226,VALID,0,
2010-01-24, 02:34:04,VALID,1004.46,VALID,0,VALID,92.0043,VALID,0.100563,VALID,23.6823,VALID,226,VALID,0,
2010-01-24, 02:35:04,VALID,1004.47,VALID,0,VALID,91.9967,VALID,0,VALID,23.6628,VALID,226,VALID,0,
2010-01-24, 02:36:04,VALID,1004.47,VALID,0,VALID,92.0272,VALID,0,VALID,23.6628,VALID,226,VALID,0,
2010-01-24, 02:37:04,VALID,1004.44,VALID,0,VALID,92.0882,VALID,0,VALID,23.6823,VALID,226,VALID,0,
2010-01-24, 02:38:04,VALID,1004.44,VALID,0,VALID,92.1264,VALID,0,VALID,23.6628,VALID,226,VALID,0,
2010-01-24, 02:39:04,VALID,1004.45,VALID,0,VALID,92.1187,VALID,0,VALID,23.6628,VALID,226,VALID,0,
2010-01-24, 02:40:04,VALID,1004.46,VALID,0,VALID,92.1264,VALID,0,VALID,23.6221,VALID,226,VALID,0,
2010-01-24, 02:41:04,VALID,1004.46,VALID,0,VALID,92.134,VALID,0,VALID,23.6239,VALID,226,VALID,0,
2010-01-24, 02:42:04,VALID,1004.49,VALID,0,VALID,92.134,VALID,0,VALID,23.6434,VALID,226,VALID,0,
2010-01-24, 02:43:04,VALID,1004.5,VALID,0,VALID,92.1645,VALID,0,VALID,23.6221,VALID,226,VALID,0,
2010-01-24, 02:44:04,VALID,1004.5,VALID,0,VALID,92.1874,VALID,0,VALID,23.6239,VALID,226,VALID,0.294141,
2010-01-24, 02:45:04,VALID,1004.51,VALID,0,VALID,92.1721,VALID,0,VALID,23.585,VALID,226,VALID,0,
2010-01-24, 02:46:04,VALID,1004.53,VALID,0,VALID,92.1492,VALID,0,VALID,23.585,VALID,226,VALID,0,
2010-01-24, 02:47:04,VALID,1004.53,VALID,0,VALID,92.1492,VALID,0,VALID,23.546,VALID,226,VALID,0.00078125,
2010-01-24, 02:48:04,VALID,1004.54,VALID,0,VALID,92.1416,VALID,0,VALID,23.5266,VALID,226,VALID,0,
2010-01-24, 02:49:04,VALID,1004.5,VALID,0,VALID,92.1187,VALID,0,VALID,23.4877,VALID,226,VALID,0,
2010-01-24, 02:50:04,VALID,1004.47,VALID,0,VALID,92.0882,VALID,0,VALID,23.4894,VALID,226,VALID,0,
2010-01-24, 02:51:04,VALID,1004.46,VALID,0,VALID,92.0958,VALID,0,VALID,23.4487,VALID,219,VALID,0.33125,
2010-01-24, 02:52:04,VALID,1004.44,VALID,0,VALID,92.1492,VALID,0,VALID,23.4877,VALID,219,VALID,0.0121094,
2010-01-24, 02:53:04,VALID,1004.44,VALID,0,VALID,92.2103,VALID,0,VALID,23.447,VALID,219,VALID,0.0148437,
2010-01-24, 02:54:04,VALID,1004.42,VALID,0,VALID,92.2408,VALID,0,VALID,23.4682,VALID,219,VALID,0.160156,
2010-01-24, 02:55:04,VALID,1004.43,VALID,0,VALID,92.2713,VALID,0,VALID,23.4487,VALID,219,VALID,0,
2010-01-24, 02:56:04,VALID,1004.43,VALID,0,VALID,92.2713,VALID,0,VALID,23.4293,VALID,219,VALID,0,
2010-01-24, 02:57:04,VALID,1004.44,VALID,0,VALID,92.2942,VALID,0,VALID,23.4293,VALID,219,VALID,0,
2010-01-24, 02:58:04,VALID,1004.44,VALID,0,VALID,92.3629,VALID,0,VALID,23.4098,VALID,219,VALID,0,
2010-01-24, 02:59:04,VALID,1004.44,VALID,0,VALID,92.3629,VALID,0,VALID,23.4098,VALID,219,VALID,0,
2010-01-24, 03:00:04,VALID,1004.45,VALID,0,VALID,92.3934,VALID,0,VALID,23.4098,VALID,219,VALID,0,
2010-01-24, 03:01:04,VALID,1004.45,VALID,0,VALID,92.4163,VALID,0,VALID,23.4098,VALID,219,VALID,0,
2010-01-24, 03:02:04,VALID,1004.43,VALID,0,VALID,92.4468,VALID,0,VALID,23.4098,VALID,219,VALID,0.219922,
2010-01-24, 03:03:04,VALID,1004.45,VALID,0,VALID,92.5078,VALID,0,VALID,23.4098,VALID,219,VALID,0.270312,
2010-01-24, 03:04:04,VALID,1004.44,VALID,0,VALID,92.5383,VALID,0,VALID,23.3886,VALID,219,VALID,0.153125,
2010-01-24, 03:05:04,VALID,1004.46,VALID,0,VALID,92.5688,VALID,0.100563,VALID,23.3886,VALID,219,VALID,0.313281,
2010-01-24, 03:06:04,VALID,1004.46,VALID,0,VALID,92.607,VALID,0,VALID,23.3691,VALID,219,VALID,0.178906,
2010-01-24, 03:07:04,VALID,1004.45,VALID,0,VALID,92.607,VALID,0,VALID,23.3904,VALID,219,VALID,0.270312,
2010-01-24, 03:08:04,VALID,1004.45,VALID,0,VALID,92.6146,VALID,0,VALID,23.3514,VALID,219,VALID,0.357812,
2010-01-24, 03:09:04,VALID,1004.43,VALID,0,VALID,92.6146,VALID,0,VALID,23.2913,VALID,219,VALID,0.276563,
2010-01-24, 03:10:04,VALID,1004.44,VALID,0,VALID,92.5536,VALID,0,VALID,23.2736,VALID,219,VALID,0.438281,
2010-01-24, 03:11:04,VALID,1004.44,VALID,0,VALID,92.5917,VALID,0,VALID,23.2931,VALID,220,VALID,0.336719,
2010-01-24, 03:12:04,VALID,1004.43,VALID,0,VALID,92.6528,VALID,0,VALID,23.332,VALID,220,VALID,0.302734,
2010-01-24, 03:13:04,VALID,1004.42,VALID,0,VALID,92.7214,VALID,0,VALID,23.3497,VALID,250,VALID,0.450391,
2010-01-24, 03:14:04,VALID,1004.45,VALID,0,VALID,92.7672,VALID,0,VALID,23.4311,VALID,250,VALID,0.327734,
2010-01-24, 03:15:04,VALID,1004.44,VALID,0,VALID,92.813,VALID,0,VALID,23.4293,VALID,250,VALID,0,
2010-01-24, 03:16:04,VALID,1004.42,VALID,0,VALID,92.8511,VALID,0,VALID,23.4293,VALID,250,VALID,0,
2010-01-24, 03:17:04,VALID,1004.44,VALID,0,VALID,92.8664,VALID,0,VALID,23.4664,VALID,250,VALID,0,
2010-01-24, 03:18:04,VALID,1004.46,VALID,0,VALID,92.9045,VALID,0,VALID,23.4664,VALID,250,VALID,0,
2010-01-24, 03:19:04,VALID,1004.45,VALID,0,VALID,92.9198,VALID,0,VALID,23.5071,VALID,250,VALID,0,
2010-01-24, 03:20:04,VALID,1004.42,VALID,0,VALID,92.8969,VALID,0,VALID,23.5071,VALID,250,VALID,0,
2010-01-24, 03:21:04,VALID,1004.47,VALID,0,VALID,92.9274,VALID,0,VALID,23.5655,VALID,250,VALID,0,
2010-01-24, 03:22:04,VALID,1004.44,VALID,0,VALID,92.9274,VALID,0,VALID,23.5832,VALID,250,VALID,0,
2010-01-24, 03:23:04,VALID,1004.37,VALID,0,VALID,92.9045,VALID,0.100563,VALID,23.6416,VALID,9,VALID,1.93008,
2010-01-24, 03:24:04,VALID,1004.38,VALID,0,VALID,92.9045,VALID,0,VALID,23.7796,VALID,358,VALID,0.732813,
2010-01-24, 03:25:04,VALID,1004.33,VALID,0,VALID,92.7901,VALID,0,VALID,23.8769,VALID,19,VALID,0.945703,
2010-01-24, 03:26:04,VALID,1004.3,VALID,0,VALID,92.607,VALID,0,VALID,23.9548,VALID,3,VALID,0.660156,
2010-01-24, 03:27:04,VALID,1004.3,VALID,0,VALID,92.3171,VALID,0,VALID,23.9919,VALID,21,VALID,0.869141,
2010-01-24, 03:28:04,VALID,1004.28,VALID,0,VALID,91.9662,VALID,0,VALID,24.1494,VALID,14,VALID,0.860937,
2010-01-24, 03:29:04,VALID,1004.29,VALID,0,VALID,91.4626,VALID,0,VALID,24.2468,VALID,30,VALID,0.514844,
2010-01-24, 03:30:04,VALID,1004.3,VALID,0,VALID,90.8676,VALID,0,VALID,24.2839,VALID,21,VALID,0.657031,
2010-01-24, 03:31:04,VALID,1004.32,VALID,0,VALID,90.2954,VALID,0.100563,VALID,24.3441,VALID,4,VALID,0.642578,
2010-01-24, 03:32:04,VALID,1004.32,VALID,0,VALID,89.853,VALID,0,VALID,24.4414,VALID,33,VALID,1.47227,
2010-01-24, 03:33:04,VALID,1004.37,VALID,0,VALID,89.1587,VALID,0,VALID,24.5582,VALID,32,VALID,1.13164,
2010-01-24, 03:34:04,VALID,1004.37,VALID,0,VALID,88.5942,VALID,0,VALID,24.6185,VALID,30,VALID,1.17852,
2010-01-24, 03:35:04,VALID,1004.37,VALID,0,VALID,88.1822,VALID,0,VALID,24.6556,VALID,14,VALID,0.962109,
2010-01-24, 03:36:04,VALID,1004.37,VALID,0,VALID,87.8237,VALID,0,VALID,24.6945,VALID,17,VALID,1.75547,
2010-01-24, 03:37:04,VALID,1004.36,VALID,0,VALID,87.1981,VALID,0,VALID,24.8113,VALID,30,VALID,1.26367,
2010-01-24, 03:38:04,VALID,1004.36,VALID,0,VALID,86.8472,VALID,0,VALID,24.8911,VALID,33,VALID,0.890625,
2010-01-24, 03:39:04,VALID,1004.38,VALID,0,VALID,86.7633,VALID,0,VALID,24.8697,VALID,14,VALID,1.15703,
2010-01-24, 03:40:04,VALID,1004.37,VALID,0,VALID,86.748,VALID,0,VALID,24.8892,VALID,22,VALID,0.767187,
2010-01-24, 03:41:04,VALID,1004.38,VALID,0,VALID,86.7327,VALID,0,VALID,24.8892,VALID,19,VALID,0.729688,
2010-01-24, 03:42:04,VALID,1004.43,VALID,0,VALID,86.7099,VALID,0,VALID,24.8697,VALID,6,VALID,2.10469,
2010-01-24, 03:43:04,VALID,1004.43,VALID,0,VALID,86.5802,VALID,0,VALID,24.9495,VALID,35,VALID,0.427734,
2010-01-24, 03:44:04,VALID,1004.45,VALID,0,VALID,86.5268,VALID,0.100563,VALID,24.9282,VALID,29,VALID,0.620703,
2010-01-24, 03:45:04,VALID,1004.47,VALID,0,VALID,86.5954,VALID,0.100563,VALID,24.8873,VALID,24,VALID,0.865625,
2010-01-24, 03:46:04,VALID,1004.44,VALID,0,VALID,86.7175,VALID,0,VALID,24.8697,VALID,20,VALID,0.428125,
2010-01-24, 03:47:04,VALID,1004.48,VALID,0,VALID,86.7175,VALID,0.100563,VALID,24.8697,VALID,23,VALID,0.987891,
2010-01-24, 03:48:04,VALID,1004.52,VALID,0,VALID,86.5649,VALID,0,VALID,24.8892,VALID,19,VALID,1.14297,